Tracking 29892 objects as of 21-Nov-2024
HD Live streaming from Space Station
objects crossing your sky now

STARLINK-30839

Track STARLINK-30839 now!
10-day predictions
STARLINK-30839 is classified as:


NORAD ID: 58209
Int'l Code: 2023-170D
Perigee: 565.7 km
Apogee: 566.8 km
Inclination: 43.0 °
Period: 95.8 minutes
Semi major axis: 6937 km
RCS: Unknown
Launch date: November 3, 2023
Source: United States (US)
Launch site: AIR FORCE EASTERN TEST RANGE (AFETR)
Your satellite tracking list
Your tracking list is empty




NASA's NSSDC Master Catalog

Two Line Element Set (TLE):
1 58209U 23170D   24325.80604729  .00000443  00000-0  47824-4 0  9999
2 58209  43.0016 250.9969 0000783 261.1510  98.9244 15.02534283 58994
Source of the keplerian elements: AFSPC